This demonstration page uses our WeatherBlox Daily Observations layout. Learn more.

Left ArrowRight Arrow

Hourly Observations for March 5, 2018

Temp ( °F °C ) Dew Point ( °F °C ) Humidity (%) Winds ( mph kmh ) Pressure ( in mb ) Visibility ( mi km ) Precip ( " mm )
12:59 am 00:59 Clear 42 5.6 18 -7.8 38 38 NNW 18 30 30.14 1021 10 16 0.00 0.00
1:59 am 01:59 Clear 40 4.4 21 -6.1 47 47 N 13 20 30.13 1020 10 16 0.00 0.00
2:59 am 02:59 Clear 39 3.9 21 -6.1 48 48 N 16 26 30.12 1020 10 16 0.00 0.00
3:59 am 03:59 Clear 38 3.3 20 -6.7 48 48 N 12 19 30.12 1020 10 16 0.00 0.00
4:59 am 04:59 Clear 37 2.8 17 -8.3 44 44 N 15 24 30.13 1020 10 16 0.00 0.00
5:59 am 05:59 Clear 36 2.2 14 -10 40 40 N 22 35 30.13 1020 10 16 0.00 0.00
6:59 am 06:59 Sunny 35 1.7 15 -9.4 44 44 N 18 30 30.12 1020 10 16 0.00 0.00
7:59 am 07:59 Sunny 37 2.8 17 -8.3 44 44 N 15 24 30.11 1020 10 16 0.00 0.00
8:59 am 08:59 Sunny 39 3.9 17 -8.3 41 41 NNW 20 31 30.14 1021 10 16 0.00 0.00
9:59 am 09:59 Sunny 40 4.4 18 -7.8 41 41 N 13 20 30.16 1021 10 16 0.00 0.00
10:59 am 10:59 Sunny 43 6.1 18 -7.8 37 37 NNW 15 24 30.14 1021 10 16 0.00 0.00
11:59 am 11:59 Mostly Sunny 45 7.2 18 -7.8 34 34 NNW 15 24 30.12 1020 10 16 0.00 0.00
12:59 pm 12:59 Mostly Sunny 47 8.3 18 -7.8 31 31 N 14 22 30.09 1019 10 16 0.00 0.00
1:59 pm 13:59 Mostly Sunny 47 8.3 19 -7.2 33 33 N 16 26 30.07 1018 10 16 0.00 0.00
2:59 pm 14:59 Mostly Sunny 46 7.8 22 -5.6 38 38 NNE 15 24 30.06 1018 10 16 0.00 0.00
3:59 pm 15:59 Mostly Sunny 46 7.8 22 -5.6 38 38 NNE 15 24 30.06 1018 10 16 0.00 0.00
4:59 pm 16:59 Partly Cloudy 44 6.7 22 -5.6 41 41 NNE 14 22 30.08 1019 10 16 0.00 0.00
5:59 pm 17:59 Partly Cloudy 42 5.6 22 -5.6 45 45 NNE 13 20 30.09 1019 10 16 0.00 0.00
6:59 pm 18:59 Partly Cloudy 42 5.6 24 -4.4 49 49 NNE 9 15 30.10 1019 10 16 0.00 0.00
7:59 pm 19:59 Partly Cloudy 42 5.6 24 -4.4 49 49 NNE 8 13 30.10 1019 10 16 0.00 0.00
8:59 pm 20:59 Clear 41 5 25 -3.9 53 53 NNE 7 11 30.11 1020 10 16 0.00 0.00
9:59 pm 21:59 Mostly Clear 42 5.6 23 -5 47 47 NNE 10 17 30.11 1020 10 16 0.00 0.00
10:59 pm 22:59 Mostly Clear 41 5 25 -3.9 53 53 NNE 9 15 30.11 1020 10 16 0.00 0.00
11:59 pm 23:59 Mostly Clear 39 3.9 25 -3.9 57 57 NE 5 7 30.11 1020 10 16 0.00 0.00

Powered by AerisWeather